{"data":{"norad_id":47805,"intl_designator":"2021-018U","name":"STARLINK-2386","alt_names":[],"object_type":"PAYLOAD","status":"ACTIVE","operator":null,"country":"US","launch_date":"2021-03-11","launch_site_code":"AFETR","launch_vehicle":null,"mission":null,"orbit_class":"UNKNOWN","rcs_meters":null,"size_class":null,"mass_kg":null,"dimensions":null,"purposes":["comms"],"wikipedia_slug":null,"has_3d_model":false,"image_url":null,"decayed_at":null,"tle_current":{"epoch":"2026-09-20T01:36:19.297728Z","epoch_age_seconds":63256,"freshness":"FRESH","line1":"1 47805U 21018U   26263.06689002  .00023167  00000+0  82948-3 0  9998","line2":"2 47805  53.0841  60.9211 0002520 109.2386 250.8886 15.28682714306442","mean_motion":15.28682714,"eccentricity":0.000252,"inclination_deg":53.0841,"raan_deg":60.9211,"arg_perigee_deg":109.2386,"mean_anomaly_deg":250.8886,"bstar":0.00082948,"rev_number":30644,"period_min":94.198749473136,"perigee_km":478.02097133733,"apogee_km":481.47734596129,"semimajor_km":6857.8861586493,"source":"CELESTRAK","updated_at":"2026-09-20T09:00:38.747472Z"}}}